TEVEL2-7

Last updated on Sun Aug 09 2026 00:03:16 GMT+0000 (Coordinated Universal Time)

1 63238U 25052AE 26220.63399271 .00008588 00000+0 27090-3 0 9997 2 63238 97.3870 115.7873 0004646 336.0364 24.0662 15.33103301 78055
UTC large
Height (km)
Speed (km/s)
/
Latitude / Longitude
Inclination (degrees)
Orbital Period (minutes)
Azimuth
Elevation
Range (km)
Doppler Factor

Next 0 passes for location: London (51.5072 / 0.1276)

No passes found over London.
TEVEL2-7